TRANSIT 2A

Satellite information

Favourite Embed

Satellite Type and Status

PAYLOADIN ORBIT

Key statistics

Satellite TRANSIT 2A at a glance.

Uptime

23916

Days in orbit

Revolutions

≈ 14.4

Per day

Orbit

LEO

Low Earth Orbit

Inclination

66.7

Latest

Satellite identification and parameters

Extended collection of information and parameters for TRANSIT 2A.

Object identification

Identified? True

Debris? False

Object name: TRANSIT 2A

International designator: 1960-007A

Object number (NORAD): 45

Object ID (CCSDS): 45

Country: UNITED STATES OF AMERICA (US)

Current information (Y/N): Y

RCS size: MEDIUM

Orbital parameters

Period: 100.294 minutes

Inclination: 66.6925 deg

SMA: 7150.609 km

Apoapsis: 955.264 km

Periapsis: 589.685 km

RAAN: 134.9166 deg

Eccentricy: 0.02556281

Argument of periapsis: 295.0335 deg

Mean anomaly: 62.4422 deg

Mean motion: 14.35780941 rev/day

Mean motion (dot): 0.00000541 rev/day2

B* drag term: 0.00015495599 1/REarth

Two-line elements (TLE)

Creation date: Dec. 12, 2025, 10:14 a.m.

Reference frame: TEME

Reference center: EARTH

Epoch: Dec. 12, 2025, 3:23 a.m. UTC

TLE line 0: 0 TRANSIT 2A

TLE line 1: 1 00045U 60007A 25346.14124461 .00000541 00000-0 15496-3 0 9993

TLE line 2: 2 00045 66.6925 134.9166 0255628 295.0335 62.4422 14.35780941353193

Live tracking on map

Real-time ground track for satellite TRANSIT 2A.

In-orbit conjunctions

A list of the most updated potential collisions computed for object TRANSIT 2A.

Target Orbit TCA Probability of collision Miss distance Type
FENGYUN 1C DEB SSO 2025-11-16 12:25:30 0.0002648599 328.0 (m) DEBRIS
CZ-6A DEB SSO 2025-11-15 19:17:29 0.0001456472 111.0 (m) DEBRIS
IRIDIUM 38 LEO 2025-08-18 06:42:11 0.0001161342 61.0 (m) PAYLOAD
FENGYUN 1C DEB SSO 2025-08-06 23:44:51 0.002284857 214.0 (m) DEBRIS
COSMOS 249 DEB * LEO 2025-03-20 03:52:54 0.0001050711 988.0 (m) DEBRIS

Associated space launch

The Transit system was the first satellite navigation system to be used operationally. The system was primarily used by the U.S. Navy to provide accurate location information to its Polaris ballistic missile submarines, and it was also used as a navigation system by the Navy's surface ships, as well as for hydrographic survey and geodetic surveying.

TRANSIT 2A was lifted into orbit during the mission ‘Thor DM-21 Ablestar | Transit 2A’, on board a Thor DM-21 Ablestar space rocket.

The launch took place on June 22, 1960, 5:54 a.m. from Space Launch Complex 17B.

For more information about the launch, click the button.

Launch to space Thor DM-21 Ablestar | Transit 2A
Thor DM-21 Ablestar | Transit 2A

Agency: N/A

Status: Launch Successful

Launch date: June 22, 1960, 5:54 a.m. UTC

Rocket: Thor DM-21 Ablestar

Launch pad: Space Launch Complex 17B

Location: Cape Canaveral SFS, FL, USA

...

Latest news about this satellite

There are no fresh news available about this satellite. Check back as we update our databases every day.


Newsletter sign-up

Weekly statistics, charts and insights to help you stay on top of the space industry.